Regional Weather Roundup
Issued by NWS Charleston, SC

Current Version | Previous Version | Text Only | Print | Product List | Glossary Off
Versions: 1 2 3 4 5 6 7 8 9 10 11 12 13 14 15 16 17 18 19 20 21 22 23 24 25 26 27 28 29 30 31 32 33 34 35 36 37 38 39 40 41 42 43 44 45 46 47 48 49 50

000
ASUS42 KCHS 281927
RWRCHS

REGIONAL WEATHER ROUNDUP
NATIONAL WEATHER SERVICE CHARLESTON SC
300 PM EDT THU MAY 28 2015

NOTE: "FAIR" INDICATES FEW OR NO CLOUDS BELOW 12,000 FEET WITH NO
SIGNIFICANT WEATHER AND/OR OBSTRUCTIONS TO VISIBILITY.

NOT ALL STATIONS ARE QUALITY CONTROLLED BY THE NATIONAL
WEATHER SERVICE. USE DATA WITH CAUTION...ESPECIALLY
DEWPOINT OBSERVATIONS.

SCZ027-030-031-034>040-042>050-282000-
...SOUTHEAST SOUTH CAROLINA...

CITY           SKY/WX    TMP DP  RH WIND       PRES   REMARKS
N CHARLESTON   MOSUNNY   84  63  49 SE13      30.20F
WATERFRONT PAR   N/A     77  66  68 SE12      30.18F
MOUNT PLEASANT FAIR      81  64  57 E8        30.20F
JOHNS ISLAND   CLEAR     81  64  57 E12       30.21S
PINOPOLIS        N/A     84  70  61 VRB3      30.11F
MONCKS CORNER  MOCLDY    86  64  48 E8        30.19F
SUMMERVILLE    MOCLDY    86  66  51 E7        30.19F
BEAUFORT MCAS  SUNNY     86  67  52 E12       30.19F
BEAUFORT ARPT  FAIR      82  70  65 E9        30.19S
HILTON HEAD IS MOSUNNY   81  70  69 E8        30.21F
WALTERBORO     PTCLDY    84  63  48 E5        30.18F
ALLENDALE      FAIR      88  64  45 SE9       30.16F

...SOUTHERN MIDLANDS AND PEE DEE...

CITY           SKY/WX    TMP DP  RH WIND       PRES   REMARKS
GEORGETOWN     NOT AVBL
KINGSTREE      NOT AVBL
ORANGEBURG     MOSUNNY   85  63  47 SE8       30.18F
BARNWELL       MOCLDY    88  64  45 E9        30.17F
AIKEN          FAIR      86  59  39 SE9       30.21F
MANNING        FAIR      82  63  51 SE3       30.18F
COLUMBIA       MOSUNNY   87  65  47 SE9G16    30.17F
SUMTER         SUNNY     86  65  49 E6        30.17F
FLORENCE       MOSUNNY   85  65  51 MISG      30.19F
MYRTLE BEACH   MOSUNNY   81  63  54 S12       30.25F
N MYRTLE BEACH SUNNY     79  64  60 SE10      30.23F

$$

GAZ063-065-086>088-099>101-113>116-118-119-134>141-150-282000-
...SOUTHEAST GEORGIA...

CITY           SKY/WX    TMP DP  RH WIND       PRES   REMARKS
SAVANNAH ARPT  PTSUNNY   85  62  46 E12       30.18F
HUNTER AAF     SUNNY     84  67  56 SE8G17    30.16F
FORT STEWART   MOSUNNY   86  60  41 E9        30.16F
STATESBORO     MOSUNNY   87  67  51 S5G16     30.16F HX  90
SYLVANIA       PTCLDY    89  65  44 E5        30.17F HX  91
CLAXTON        FAIR      86  63  45 SE6       30.16F

...CSRA...CENTRAL AND FAR SOUTHEAST GEORGIA...

CITY           SKY/WX    TMP DP  RH WIND       PRES   REMARKS
THOMSON        MOSUNNY   86  68  55 SE7       30.21F
AUGUSTA-BUSH   MOSUNNY   87  65  47 S9        30.16F
AUGUSTA-DANIEL MOSUNNY   87  65  47 SE12G18   30.18F
SWAINSBORO     MOCLDY    88  66  48 SE6       30.17F HX  90
VIDALIA        PTSUNNY   86  63  45 E10       30.16F
EASTMAN        FAIR      87  64  46 SE7       30.18F
HAZLEHURST     MOCLDY    86  62  43 E7        30.15F
ALMA           FAIR      85  61  44 E7        30.16F
WAYCROSS       PTSUNNY   87  65  47 SE7       30.14F
JESUP          FAIR      90  63  40 E10G16    30.16F HX  90
BAXLEY         PTSUNNY   86  63  45 SE8       30.15F
BRUNSWICK        N/A     82  61  47 E12G17    30.18F
SAINT SIMONS   NOT AVBL

$$

SCZ027-028-034-036>038-045-046-048>050-GAZ119-141-282000-
...LAKE AND SUPPLEMENTAL COASTAL OBSERVATIONS...

STATION/POSITION TIME  TEMP    WIND        PRES    WAVE   SWELL
                       AIR SEA DIR/SP/G            HT/PER HT/PER/DIR
                 (UTC) (F)     (DEG/KT/KT) (MB)    (FT/S) (FT/S/D)
UPR LAKE MARION  NOT AVBL
WINYAH BAY       1800   77     110/  8     1023.0S
LAKE MURRAY      1800   83     160/  6/  9 1021.7F
ACE BASIN NERRS  1800   83     130/  4     1023.0
FORT PULASKI     1900   78 79   80/ 10/ 13 1022.9F
SAPELO ISLAND    1900   82      80/  8     1022.0F

$$

ANZ835-935-AMZ111-154-330-350-352-354-370-450-454-472-282000-
...C-MAN AND BUOY OBSERVATIONS...

STATION/POSITION TIME  TEMP    WIND        PRES    WAVE   SWELL
                       AIR SEA DIR/SP/G            HT/PER HT/PER/DIR
                 (UTC) (F)     (DEG/KT/KT) (MB)    (FT/S) (FT/S/D)
BUOY 41004       1850   77 79   90/ 10/ 12 1022.7F   3/ 8   3/ 8
BUOY 41008       1850   78 79  110/  6/  8 1022.7F   3/ 8   3/110/ 8
FOLLY BEACH CMAN 1900   76     100/ 12/ 14 1023.2F
CAPERS NEARSHORE 1808   76     110/ 10/ 14 1023.7F
FRIPP NEARSHORE  1800   78     110/  8/ 10 1022.7F


STATION/POSITION TIME  TEMP    WIND        PRES    WAVE   SWELL
                       AIR SEA DIR/SP/G            HT/PER HT/PER/DIR
                 (UTC) (F)     (DEG/KT/KT) (MB)    (FT/S) (FT/S/D)
5E ST. MARYS GA  1821      80                N/A     3/ 8
FRYING PAN BUOY  1850   76 77   90/  6/  8 1024.2F   3/ 8   3/120/ 8
BUOY 41025       1850   75 78  110/  6/  8 1024.1F   3/ 9   3/100/ 9
CAPE LOOKOUT NC  1900   75     140/  5/  6 1023.6F
BUOY 41002       1850   74 74   50/ 16/ 17 1022.4F   5/ 8   3/ 90/ 8
BUOY 41010       1820   77 81   70/ 12/ 16 1021.1F
ST AUGUSTINE FL  1900   77 81   50/ 11/ 12 1022.2F


$$


USA.gov is the U.S. government's official web portal to all federal, state and local government web resources and services.